Location: Betzi
(47.2343°N, 9.5260°E)
Time: 22:14:46
(UTC+00:00)

CZ-4 R/B - Pass Details

Date: 27 May 2022
Orbit: 680 x 752 km, 98.5° (Epoch: 29 June)

Event Time Altitude Azimuth Distance (km) Brightness Sun altitude
Rises 01:04:02 0° 14° (NNE) 3,062 8.7 -17.5°
Reaches altitude 10° 01:06:17 10° 16° (NNE) 2,137 7.6 -17.4°
Maximum altitude 01:10:58 84° 105° (ESE) 692 3.7 -17.0°
Enters shadow 01:13:19 29° 191° (S) 1,232 4.5 -16.8°
